Simultaneous Nadir Overpasses (SNOs) Predictions

Prediction of SNOs between GOES-16 and NOAA-20 Satellite Orbit:

Table of predicted SNOs for the next 14.0 days since TLE Epoch: 3/9/2024
Index Date Time (GOES-16) GOES-16 Lat,Lon NOAA-20 Lat,Lon Distance(km) Time Diff (sec)
1 03/09/2024 18:23:22 0.05, -75.20 0.24, -74.19 114.99 80
2 03/11/2024 06:45:10 -0.04, -75.21 0.91, -79.46 484.43 80
3 03/12/2024 06:23:45 -0.05, -75.22 -0.14, -74.93 33.15 80
4 03/14/2024 18:26:56 0.04, -75.25 -0.03, -75.70 51.04 80
5 03/15/2024 18:10:50 0.04, -75.26 0.96, -71.16 467.01 80
6 03/17/2024 06:32:37 -0.04, -75.27 0.24, -76.42 131.25 80
7 03/18/2024 06:11:12 -0.03, -75.28 -0.81, -71.89 386.97 80
8 03/19/2024 18:33:08 0.02, -75.31 -0.39, -77.19 213.62 80
9 03/20/2024 18:17:02 0.02, -75.33 0.61, -72.65 305.29 80
10 03/22/2024 06:38:49 -0.01, -75.36 0.53, -77.92 291.23 80
